Regional Weather Roundup
Issued by NWS

Home | Current Version | Previous Version | Text Only | Print | Product List | Glossary On
Versions: 1 2 3 4 5 6 7 8 9 10 11 12 13 14 15 16 17 18 19 20 21 22 23 24 25 26 27 28 29 30 31 32 33 34 35 36 37 38 39 40 41 42 43 44 45 46 47 48 49 50
000
ASPQ40 PGUM 260912
RWRPQ
WEATHER ROUNDUP FOR THE MARIANAS AND MICRONESIA
NATIONAL WEATHER SERVICE TIYAN GU
700 PM CHST SAT JUL 26 2014

GUZ001>004-261000-
MARIANA ISLANDS-

CITY           SKY/WX    TMP DP  RH WIND       PRES   REMARKS
GUAM AIRPORT   PTCLDY    81  73  78 SW10      29.85R
ANDERSEN AFB   PTCLDY    79  75  89 W17       29.84R
ROTA AIRPORT   MOCLDY    79  75  89 SW6       29.83S
TINIAN AP      MOCLDY    79  77  94 S6        29.83R
SAIPAN AP      PTCLDY    81  75  83 SW5       29.85R

$$

PMZ161-261000-
REPUBLIC OF PALAU-

CITY           SKY/WX    TMP DP  RH WIND       PRES   REMARKS
KOROR AP       LGT RAIN  82  81  94 SW22G29   29.78R HX  95
KOROR WSO      LGT RAIN  79  75  89 W12G53    29.78R

$$

PMZ171>174-261000-
FEDERATED STATES OF MICRONESIA-

CITY           SKY/WX    TMP DP  RH WIND       PRES   REMARKS
YAP AIRPORT    CLOUDY    82  77  83 S9        29.78R HX  91
CHUUK AP       CLOUDY    84  79  84 W9        29.84R HX  96
POHNPEI AP     NOT AVBL
POHNPEI WSO    CLOUDY    81  75  83 W9        29.87R
KOSRAE AP      NOT AVBL

$$

PMZ181-261000-
REPUBLIC OF THE MARSHALL ISLANDS-

CITY           SKY/WX    TMP DP  RH WIND       PRES   REMARKS
KWAJALEIN AP   PTCLDY    82  73  74 NE10      29.89R
MAJURO AP      NOT AVBL
MAJURO WSO     LGT RAIN  81  75  83 CALM      29.88R

$$



USA.gov is the U.S. government's official web portal to all federal, state and local government web resources and services.